Wind_Speed
9 11 10 3 5 6 4 7 2 7 6 4 10 1 1 6 5 4 10 16 24 27 26 22 20 18 19 20 22 24 24 19 18 18 17 16 16 18 18 18 15 15 15 17 19 19 20 21 21
9 10 5 5 7 9 7 5 8 7 10 9 9 2 1 6 4 8 19 19 26 28 27 24 21 18 19 20 22 24 22 20 20 18 17 17 19 18 18 16 16 16 16 18 19 19 20 21 20
7 7 6 4 6 9 3 7 9 8 13 9 8 2 2 4 5 17 11 26 27 27 27 25 22 19 18 19 21 22 22 21 19 18 17 18 19 18 17 17 17 17 17 18 19 19 20 19 19
4 4 6 7 11 2 2 7 6 11 9 9 5 7 5 3 11 9 23 26 27 26 25 25 22 19 18 18 20 21 21 20 19 18 17 18 18 17 17 17 18 18 18 18 19 19 19 19 18
4 6 7 10 6 2 2 0 5 12 12 13 10 7 6 7 10 15 25 26 27 25 25 25 23 20 18 18 19 21 20 20 20 18 18 18 18 17 17 17 17 18 18 18 18 18 18 17 17
8 5 8 12 10 5 2 2 5 13 13 15 9 13 7 13 12 20 22 25 25 26 26 26 24 21 19 17 18 19 19 19 19 18 18 18 18 18 17 17 16 16 17 18 17 17 16 15 15
12 8 12 8 5 8 2 6 9 14 15 14 4 12 8 14 16 22 21 23 24 26 28 28 26 23 20 18 18 18 18 19 19 18 18 17 18 18 17 17 16 16 16 17 15 15 15 15 13
8 7 9 11 10 9 2 2 3 15 13 4 8 7 10 20 22 23 21 23 26 28 29 29 28 26 24 21 18 18 18 18 18 18 17 18 17 17 17 17 17 17 16 16 15 15 14 14 14
6 7 12 15 12 8 1 2 2 5 8 11 11 1 8 26 26 25 23 23 25 29 31 31 31 29 27 24 22 19 19 19 19 18 18 18 18 18 18 18 18 17 16 16 16 16 14 12 11
11 10 15 5 7 8 4 1 1 7 17 14 12 7 17 27 29 29 28 28 29 31 32 33 32 31 29 25 24 23 22 22 22 22 22 21 17 20 19 19 19 18 18 17 16 16 15 13 8
11 14 8 9 7 6 6 6 1 4 12 20 19 16 22 27 27 27 26 26 29 29 30 32 33 33 31 26 26 26 25 25 26 25 25 22 19 19 21 21 22 21 21 21 20 19 18 16 11
12 16 13 12 8 8 10 5 7 8 4 2 9 20 25 29 30 29 27 26 27 29 29 30 31 33 33 26 28 25 24 25 25 27 27 24 23 21 21 18 22 24 23 21 21 18 19 17 18
17 16 15 17 13 13 13 16 12 12 11 8 8 20 25 27 28 26 25 24 24 27 28 30 31 33 34 33 26 26 27 28 25 26 29 27 24 23 22 20 20 20 20 22 20 19 19 19 19
2 17 20 17 16 16 15 20 11 16 8 9 8 18 23 26 28 26 26 27 27 25 29 30 31 32 33 34 31 29 29 27 29 26 28 30 27 25 23 22 22 21 21 20 20 20 19 18 18
15 14 15 19 19 15 13 22 22 23 13 10 11 14 20 24 26 30 29 29 28 27 27 30 31 31 32 34 34 31 29 30 30 28 31 31 32 29 28 24 25 24 21 24 23 22 22 20 21
13 15 18 20 21 14 14 22 22 28 23 20 16 16 18 22 27 28 27 26 26 25 28 29 31 32 32 33 34 33 30 32 31 30 30 33 33 33 31 29 27 25 24 24 26 25 23 23 21
15 18 23 20 12 17 18 17 23 16 19 26 24 20 20 20 24 26 27 26 26 27 27 30 31 33 32 33 34 33 32 33 31 30 32 33 34 35 34 32 28 29 27 26 25 24 24 22 22
20 22 21 18 15 16 17 22 20 17 22 21 28 27 25 23 24 25 26 27 26 27 28 30 32 33 34 34 35 32 32 34 34 33 33 34 35 36 37 35 32 32 28 26 26 26 23 26 22
24 17 21 18 18 9 17 22 21 26 19 21 26 25 27 28 26 24 24 26 26 28 29 32 34 37 38 37 36 37 37 36 36 35 35 37 38 37 38 38 37 37 34 31 30 29 29 24 23
23 22 19 10 8 9 17 22 19 19 23 22 23 26 28 26 25 25 24 25 27 30 32 33 38 39 42 42 41 38 36 34 34 33 35 39 40 40 41 41 39 38 37 36 34 33 28 26 23
22 25 21 17 11 12 11 21 21 22 27 30 29 27 27 27 29 28 26 25 28 34 35 36 37 42 45 45 41 35 27 29 30 36 39 41 41 42 43 44 43 42 40 38 38 37 35 28 23
23 22 19 19 17 17 17 20 24 21 25 24 33 33 31 33 33 33 32 30 29 37 38 41 38 42 44 44 38 42 44 41 44 40 38 39 41 43 44 45 46 44 44 41 39 37 38 34 29
24 18 17 16 16 16 20 11 25 19 22 22 20 29 30 29 32 36 37 36 35 34 38 43 40 42 40 44 45 45 46 46 39 35 34 35 36 39 43 45 44 45 45 44 41 39 39 32 32
15 17 17 14 13 17 24 19 25 21 23 17 16 20 23 26 29 30 31 31 33 29 30 38 36 42 42 43 46 46 45 44 36 38 36 34 34 36 39 40 41 40 42 42 41 39 39 37 31
20 16 13 14 12 21 20 18 27 5 7 8 10 17 20 23 23 23 25 26 28 26 31 34 35 34 37 42 43 42 39 40 44 41 40 34 35 37 37 36 35 34 34 35 36 36 35 34 35
27 25 14 19 17 22 21 15 21 17 31 38 31 25 28 23 17 15 23 24 23 21 24 28 34 34 35 38 40 41 42 42 43 40 37 38 36 35 33 29 29 28 28 29 30 32 32 31 32
19 21 28 27 23 14 11 17 27 24 22 22 25 22 19 17 26 23 16 14 17 17 16 16 20 25 30 34 35 39 41 43 43 44 43 38 35 31 31 27 27 27 27 28 28 29 28 27 28
23 15 18 16 25 28 21 22 14 13 12 18 17 19 26 29 24 18 15 13 12 13 14 16 19 25 29 32 36 40 42 41 41 39 41 39 35 32 30 28 29 28 29 29 28 28 26 26 26
14 18 18 16 19 20 21 21 24 26 19 9 7 3 10 10 12 9 9 10 8 12 16 18 19 23 31 36 37 41 45 42 39 38 39 38 36 32 31 30 29 29 30 30 29 28 26 26 26
15 8 19 16 22 17 21 20 16 11 15 22 28 35 26 13 13 12 12 13 15 12 11 13 16 20 25 33 36 39 40 39 36 37 37 37 34 33 31 30 29 30 29 29 29 28 27 26 25
Wind_Direction
322 331 327 278 247 235 197 134 79 136 143 91 141 161 316 360 337 19 143 155 163 164 166 159 155 153 151 157 163 171 169 168 164 158 154 151 148 146 145 146 143 138 131 128 124 122 118 116 114
328 325 297 271 255 220 152 128 169 120 114 128 152 130 189 72 65 127 146 162 162 169 167 162 159 157 153 158 160 167 169 167 161 158 155 152 149 146 147 149 147 140 136 133 130 127 123 120 118
326 315 268 262 254 253 130 158 119 121 151 154 157 216 41 78 90 144 166 158 161 168 168 166 163 160 159 162 163 167 167 164 161 157 153 151 151 146 146 147 147 142 141 139 134 129 125 122 119
312 260 239 250 225 101 21 121 139 144 158 180 147 136 108 96 145 159 159 159 164 167 170 169 167 164 163 167 166 167 167 165 161 158 156 154 153 150 148 149 149 147 146 142 137 131 126 123 122
288 248 245 239 212 169 178 257 212 179 163 178 187 129 118 141 152 157 160 162 165 170 173 174 171 169 170 172 170 169 169 168 165 162 159 157 156 155 153 154 155 153 149 144 140 138 134 133 132
231 263 235 227 185 182 202 296 240 206 177 178 189 150 130 160 149 155 161 164 169 174 179 178 175 176 176 178 175 173 172 172 170 168 164 162 161 160 159 159 161 159 154 150 150 152 147 137 135
263 237 245 265 215 196 158 315 218 204 189 180 182 171 138 157 159 159 162 167 173 180 184 183 180 182 182 183 183 179 178 177 176 175 170 167 167 167 165 165 167 166 163 160 159 158 162 159 150
263 260 230 223 209 195 62 310 246 206 178 148 188 178 169 171 164 160 164 172 180 186 188 188 186 185 186 186 188 187 183 183 181 181 179 175 176 176 174 173 174 173 173 172 166 162 157 160 160
249 243 233 222 210 180 144 222 90 217 189 196 193 270 138 170 167 165 167 174 183 189 193 192 192 191 190 191 189 192 191 188 188 187 188 185 185 185 183 184 182 182 182 183 181 178 174 173 172
226 240 240 242 212 188 175 226 323 224 203 202 185 167 155 167 171 172 177 180 184 191 194 197 196 197 194 193 195 193 195 195 194 194 195 193 192 191 191 194 190 191 191 194 196 197 195 192 203
215 245 256 237 225 220 207 225 281 222 220 213 206 181 169 171 176 181 185 187 187 189 194 198 199 200 200 194 198 198 199 199 201 200 201 196 200 200 194 199 197 198 198 201 204 208 211 212 212
241 231 250 253 234 238 236 241 226 240 234 223 219 194 178 178 183 188 188 188 186 190 195 199 201 203 203 199 201 201 201 202 203 206 205 202 204 204 200 200 202 202 206 205 211 213 214 219 225
238 242 241 240 252 254 269 250 247 244 233 249 222 187 189 189 191 191 192 190 189 193 196 201 201 206 207 205 203 204 207 210 208 210 212 209 208 209 205 206 204 207 208 211 213 213 221 227 229
280 239 246 241 242 248 258 254 223 235 216 209 206 198 197 195 194 193 194 194 195 196 201 205 205 209 211 212 210 210 214 214 212 214 218 219 215 217 212 212 211 212 213 214 218 221 225 229 232
243 245 241 235 232 237 254 256 233 236 207 216 211 204 202 204 197 200 200 200 199 201 201 210 212 213 214 218 218 215 218 217 219 217 222 226 224 223 220 219 220 219 219 222 224 226 229 231 236
234 233 247 236 220 222 217 251 225 230 227 228 217 206 206 206 205 207 206 204 206 203 207 213 216 221 220 222 222 220 219 223 223 222 224 227 230 229 229 227 228 224 222 227 228 230 232 235 237
218 236 226 238 194 225 211 240 247 222 224 228 220 213 209 209 210 211 211 210 207 209 210 217 220 224 227 227 227 228 228 230 227 225 227 231 230 232 233 230 231 231 229 229 229 231 232 235 238
222 225 242 225 213 217 220 235 244 236 225 225 226 216 215 213 214 214 213 214 214 213 213 220 225 227 229 227 227 228 229 234 232 231 232 234 235 234 234 233 232 235 231 231 232 231 235 238 239
249 247 227 228 228 250 226 245 230 241 228 237 234 227 221 222 221 221 221 220 218 218 219 223 227 230 230 227 227 227 231 233 234 233 233 235 236 237 237 235 235 237 236 234 238 238 239 239 239
240 241 233 245 256 243 250 247 244 240 244 236 234 232 231 227 225 224 224 224 223 224 222 227 231 234 233 233 235 235 234 232 236 235 235 239 239 239 240 239 236 238 238 239 238 239 236 241 234
234 235 239 241 203 229 267 260 247 243 249 247 239 239 241 232 232 235 234 233 233 234 233 230 229 233 236 236 234 229 225 230 233 236 240 245 245 242 243 244 240 241 242 241 244 244 242 236 238
235 233 248 258 249 249 237 269 253 238 227 236 240 239 239 243 243 243 243 242 240 242 248 250 236 232 234 233 224 230 236 236 245 249 247 244 244 241 242 242 242 241 244 243 244 247 247 244 236
243 241 254 235 242 255 251 253 263 254 246 237 235 244 244 243 243 245 246 247 247 247 252 253 251 233 229 234 232 234 235 242 243 243 244 246 242 241 240 241 240 241 243 246 246 245 249 242 243
254 230 228 237 237 239 236 239 264 244 244 236 238 248 251 246 248 249 249 248 246 243 241 253 246 238 229 228 235 234 241 243 234 235 239 239 240 240 240 239 242 243 243 244 246 246 246 249 243
221 213 218 223 223 238 229 227 244 229 279 282 273 248 244 253 251 249 249 249 243 246 247 257 239 231 227 228 233 238 242 243 242 238 237 233 235 237 241 242 244 245 245 244 243 243 244 246 247
212 220 226 223 229 239 224 236 238 244 257 260 263 245 256 274 225 268 254 247 247 246 250 246 234 229 227 229 234 239 241 241 241 235 231 237 236 237 239 243 242 242 242 241 241 242 246 248 250
228 219 228 243 266 275 261 233 236 253 258 256 251 257 258 259 252 269 255 249 254 238 237 240 241 240 238 236 236 239 242 243 244 241 237 234 234 233 237 238 233 232 233 234 236 240 244 246 250
233 232 226 234 240 246 238 236 232 208 219 238 252 257 257 260 262 268 270 265 238 246 244 252 257 256 255 253 246 244 247 247 248 237 231 229 232 232 231 229 228 228 230 231 233 237 242 244 248
210 236 245 251 221 243 250 239 236 250 262 272 267 330 351 293 265 289 299 276 250 280 275 266 272 273 260 255 254 244 243 244 241 228 225 227 228 226 224 225 227 230 230 230 231 236 241 243 250
288 282 246 235 234 237 245 248 260 273 273 257 260 280 281 274 299 300 301 289 290 290 294 283 291 288 268 254 250 244 238 235 231 220 220 222 221 218 218 222 226 230 232 230 231 234 240 245 251
Height
1521 1520 1519 1519 1515 1498 1492 1494 1495 1498 1502 1506 1507 1510 1509 1511 1510 1516 1521 1525 1527 1530 1534 1537 1541 1544 1546 1550 1552 1554 1556 1558 1559 1560 1561 1562 1563 1564 1566 1567 1569 1570 1571 1572 1573 1574 1575 1576 1577
1522 1520 1520 1516 1507 1498 1490 1491 1494 1495 1502 1508 1511 1512 1511 1512 1518 1519 1522 1525 1528 1531 1535 1538 1542 1545 1547 1551 1553 1555 1557 1559 1561 1562 1563 1564 1565 1566 1568 1569 1570 1572 1573 1574 1575 1576 1577 1578 1579
1521 1521 1519 1505 1495 1494 1489 1491 1494 1503 1506 1507 1508 1512 1513 1516 1520 1521 1521 1524 1530 1533 1536 1539 1543 1546 1549 1552 1554 1556 1558 1560 1562 1563 1564 1566 1567 1568 1569 1571 1573 1574 1575 1576 1577 1578 1580 1581 1582
1523 1522 1518 1506 1493 1491 1493 1493 1497 1502 1506 1506 1506 1509 1516 1518 1521 1523 1522 1526 1530 1534 1537 1540 1544 1546 1549 1552 1555 1557 1559 1561 1563 1564 1566 1567 1569 1570 1571 1573 1574 1575 1577 1578 1579 1581 1582 1583 1584
1522 1518 1505 1500 1493 1496 1498 1501 1501 1498 1501 1505 1507 1510 1515 1518 1519 1521 1523 1527 1531 1535 1538 1542 1545 1548 1550 1553 1556 1558 1560 1562 1564 1566 1567 1568 1570 1571 1573 1575 1576 1577 1578 1580 1582 1583 1584 1585 1586
1518 1515 1505 1498 1492 1496 1499 1501 1501 1498 1501 1504 1507 1509 1516 1518 1520 1522 1525 1529 1532 1535 1538 1542 1545 1549 1552 1554 1557 1559 1561 1563 1565 1567 1568 1570 1571 1573 1574 1577 1578 1579 1580 1581 1582 1584 1586 1587 1588
1515 1507 1498 1492 1491 1497 1497 1501 1499 1498 1499 1502 1504 1507 1516 1519 1520 1523 1527 1530 1532 1535 1538 1542 1545 1549 1552 1555 1558 1560 1562 1564 1566 1568 1570 1571 1573 1574 1576 1577 1579 1581 1582 1583 1584 1585 1586 1588 1590
1516 1508 1500 1496 1496 1492 1499 1500 1500 1496 1497 1504 1506 1505 1511 1515 1517 1522 1527 1529 1531 1534 1537 1541 1544 1548 1551 1554 1558 1560 1562 1564 1566 1569 1570 1572 1574 1575 1577 1579 1580 1581 1583 1585 1586 1587 1589 1590 1590
1518 1507 1496 1491 1495 1490 1499 1496 1500 1499 1499 1503 1506 1506 1509 1510 1515 1521 1525 1528 1530 1533 1536 1539 1543 1546 1550 1553 1556 1559 1562 1565 1566 1569 1571 1572 1574 1575 1577 1579 1581 1582 1584 1585 1587 1588 1589 1591 1591
1512 1500 1490 1487 1491 1493 1498 1498 1500 1498 1498 1501 1504 1505 1507 1509 1513 1517 1521 1523 1526 1529 1533 1537 1540 1544 1548 1552 1554 1557 1560 1563 1565 1567 1569 1571 1574 1575 1577 1578 1580 1582 1584 1586 1587 1588 1589 1591 1593
1503 1502 1491 1497 1496 1497 1495 1496 1498 1497 1494 1494 1499 1504 1505 1508 1513 1516 1519 1522 1523 1527 1531 1534 1538 1542 1546 1549 1552 1555 1557 1560 1562 1564 1567 1570 1572 1574 1575 1577 1578 1580 1582 1584 1585 1587 1589 1590 1593
1505 1500 1500 1496 1498 1499 1496 1496 1495 1495 1492 1495 1497 1501 1502 1504 1508 1513 1516 1520 1522 1525 1528 1531 1535 1538 1542 1547 1549 1552 1555 1557 1559 1561 1563 1567 1569 1571 1573 1576 1576 1578 1580 1582 1583 1585 1587 1588 1589
1502 1495 1497 1498 1499 1499 1498 1495 1493 1492 1493 1495 1496 1498 1499 1502 1505 1510 1515 1518 1520 1522 1525 1527 1531 1534 1538 1542 1546 1549 1551 1553 1557 1559 1560 1563 1566 1568 1571 1573 1575 1576 1579 1579 1581 1583 1584 1584 1585
1495 1494 1493 1494 1495 1497 1497 1490 1493 1487 1490 1491 1493 1494 1497 1499 1502 1508 1511 1513 1515 1518 1520 1523 1527 1530 1534 1537 1541 1544 1547 1550 1553 1555 1557 1560 1562 1564 1567 1569 1572 1574 1576 1578 1579 1581 1582 1582 1583
1496 1494 1490 1489 1492 1492 1494 1487 1484 1486 1486 1487 1488 1490 1493 1496 1499 1501 1504 1508 1510 1513 1517 1519 1522 1525 1529 1532 1536 1539 1542 1545 1548 1551 1553 1555 1558 1560 1563 1565 1567 1569 1572 1573 1575 1576 1577 1579 1579
1494 1488 1485 1475 1482 1487 1491 1479 1471 1478 1480 1482 1482 1485 1489 1492 1494 1497 1500 1503 1507 1511 1512 1515 1518 1521 1524 1527 1530 1534 1537 1539 1542 1545 1547 1550 1553 1556 1558 1560 1562 1565 1567 1568 1570 1572 1573 1574 1576
1484 1473 1474 1472 1475 1478 1483 1475 1471 1470 1475 1476 1476 1480 1483 1487 1490 1492 1495 1498 1502 1506 1508 1510 1513 1515 1519 1523 1526 1529 1532 1534 1536 1539 1541 1543 1546 1550 1552 1555 1557 1559 1562 1563 1565 1567 1569 1571 1571
1469 1472 1466 1464 1467 1474 1473 1471 1467 1467 1469 1471 1470 1473 1477 1480 1483 1487 1490 1493 1496 1500 1502 1505 1507 1510 1513 1517 1520 1523 1525 1527 1530 1532 1534 1536 1539 1542 1545 1549 1551 1553 1556 1558 1559 1561 1564 1565 1568
1460 1459 1465 1460 1465 1473 1466 1462 1459 1463 1465 1467 1466 1466 1470 1474 1478 1482 1485 1488 1491 1494 1495 1496 1499 1503 1506 1508 1511 1514 1515 1518 1521 1524 1526 1529 1531 1534 1537 1541 1543 1545 1548 1551 1553 1555 1557 1559 1560
1467 1463 1467 1464 1468 1476 1462 1456 1455 1460 1458 1462 1464 1465 1468 1471 1473 1476 1480 1481 1484 1486 1488 1490 1491 1494 1496 1500 1503 1506 1509 1511 1514 1516 1518 1520 1523 1526 1529 1532 1534 1536 1540 1543 1545 1547 1550 1552 1555
1468 1466 1465 1465 1467 1468 1467 1460 1455 1455 1457 1457 1457 1461 1462 1464 1467 1470 1473 1475 1476 1477 1479 1482 1484 1486 1487 1491 1496 1499 1504 1505 1506 1507 1509 1511 1514 1517 1520 1523 1526 1528 1531 1534 1537 1539 1542 1546 1548
1469 1466 1469 1470 1471 1473 1458 1456 1436 1435 1442 1446 1448 1451 1456 1459 1461 1463 1465 1468 1470 1470 1472 1473 1476 1478 1479 1482 1486 1487 1489 1492 1494 1498 1500 1503 1505 1508 1511 1514 1517 1520 1522 1525 1528 1531 1533 1537 1541
1457 1466 1465 1470 1471 1472 1464 1465 1428 1431 1432 1433 1440 1443 1446 1449 1453 1454 1455 1458 1460 1463 1461 1462 1465 1468 1471 1471 1474 1477 1480 1483 1488 1490 1492 1493 1496 1498 1501 1504 1508 1510 1513 1516 1520 1523 1524 1527 1530
1458 1462 1466 1469 1468 1472 1455 1459 1424 1427 1423 1429 1435 1438 1439 1441 1444 1445 1447 1449 1450 1453 1452 1451 1453 1457 1460 1462 1464 1467 1470 1474 1479 1481 1482 1485 1488 1490 1492 1495 1497 1501 1504 1507 1511 1514 1516 1519 1521
1457 1458 1465 1470 1472 1450 1442 1451 1425 1413 1418 1423 1427 1430 1434 1435 1437 1437 1437 1438 1440 1442 1441 1442 1443 1446 1449 1452 1455 1458 1461 1465 1468 1472 1474 1476 1478 1481 1484 1487 1490 1492 1496 1499 1502 1505 1507 1510 1512
1447 1448 1447 1457 1444 1433 1434 1439 1413 1419 1421 1426 1429 1431 1430 1430 1431 1432 1431 1432 1433 1433 1433 1433 1436 1439 1442 1444 1447 1450 1453 1455 1457 1462 1465 1467 1470 1473 1477 1480 1483 1486 1489 1491 1494 1496 1499 1501 1503
1442 1443 1436 1441 1429 1429 1426 1415 1413 1415 1417 1418 1420 1423 1422 1421 1425 1425 1426 1426 1426 1428 1428 1429 1431 1433 1435 1436 1439 1441 1443 1445 1447 1451 1454 1459 1462 1465 1469 1473 1476 1479 1481 1484 1487 1489 1492 1494 1496
1438 1430 1440 1437 1445 1440 1425 1419 1411 1408 1410 1411 1412 1414 1415 1416 1418 1420 1421 1421 1421 1422 1423 1423 1424 1426 1427 1428 1429 1432 1433 1435 1437 1441 1444 1448 1453 1457 1461 1465 1468 1472 1475 1477 1480 1483 1485 1487 1489
1432 1433 1428 1423 1427 1431 1427 1411 1401 1403 1405 1411 1409 1412 1414 1415 1417 1417 1417 1418 1417 1418 1417 1416 1415 1416 1417 1418 1419 1420 1422 1424 1426 1430 1434 1439 1444 1448 1452 1456 1460 1464 1467 1471 1473 1476 1479 1481 1482
1425 1436 1425 1426 1425 1414 1410 1407 1398 1401 1402 1407 1411 1411 1413 1415 1415 1414 1413 1414 1414 1413 1413 1412 1408 1407 1406 1407 1407 1408 1411 1414 1417 1420 1425 1430 1435 1440 1444 1449 1453 1456 1460 1464 1467 1470 1472 1474 1476